[[{"header":{"parameterUnit":"m.s-1","parameterCategory":1,"la1":30.2991,"la2":30.254,"lo1":-89.0895,"lo2":-89.0444,"dy":0.0017,"dx":0.0017,"nx":28,"ny":28,"refTime":"2024-07-02T03:00:00:Z","depth":0,"parameterNumber":2,"parameterNumberName":"U-component_of_WINDS"},"data":[0,0,0,0,0,0,0,0,0,0,0,0,0,0,0,0,0,0,0,0,0,0,0,0,0,0,0,0,0,0,0,0,0,0,0,0,0,0,0,0,0,0,0,0,0,0,0,0,0,0,0,0,0,0,0,0,0,0,0.1225,0.1225,0,0.1231,0.1231,0.1231,0.1206,0.1205,0.1205,0.1204,0.1211,0.1212,0.1212,0,0,0,0,0,0,0,0,0,0,0,0,0,0.1195,0.1196,0.1225,0.1225,0.1225,0.1231,0.1231,0.1231,0.1206,0.1205,0.1204,0.1204,0.121,0.1211,0.1212,0,0,0,0,0,0,0,0,0,0,0,0,0,0.1205,0.1196,0.1225,0.1214,0.1213,0.1231,0.1231,0.1231,0.1206,0.1205,0.1204,0.1203,0.121,0.1211,0.1213,0.1243,0,0,0.1217,0.1217,0,0,0,0,0,0,0,0,0.1205,0.1206,0.1215,0.1214,0.1213,0.1217,0.1223,0.1235,0.1207,0.1209,0.1204,0.1203,0.1214,0.1215,0.1218,0.1243,0.1243,0.1217,0.1218,0.1218,0.1218,0,0,0,0,0,0,0,0.1204,0.1206,0.1228,0.1215,0.1214,0.1209,0.1209,0.1225,0.1217,0.1209,0.1207,0.1208,0.1213,0.1217,0.1218,0.1243,0.1217,0.1218,0.1219,0.1219,0.1296,0.1297,0,0,0,0,0,0,0.1204,0.1205,0.1227,0.1228,0.1206,0.121,0.1211,0.1217,0.1217,0.1216,0.1209,0.1207,0.1215,0.1217,0.1218,0.1255,0.1218,0.1219,0.122,0.1294,0.1296,0.1297,0,0,0,0,0,0,0.1204,0.1207,0.1227,0.1216,0.1218,0.1212,0.1219,0.1217,0.1221,0.1217,0.1216,0.1214,0.1214,0.1216,0.1237,0.1255,0.122,0.1221,0.1293,0.1295,0.1297,0.1327,0,0,0,0,0,0,0.1203,0.1207,0.1217,0.1217,0.1219,0.1245,0.122,0.1218,0.1224,0.1221,0.1222,0.1221,0.1214,0.1235,0.1239,0.1256,0.1222,0.1291,0.1294,0.1296,0.1325,0.133,0.1335,0,0,0,0,0,0.1202,0.1225,0.1218,0.1221,0.1232,0.1246,0.1248,0.1239,0.1225,0.1236,0.1234,0.1221,0.1252,0.1238,0.1241,0.1259,0.129,0.1293,0.1296,0.1323,0.1329,0.1335,0,0,0,0,0,0,0.1228,0.1225,0.1217,0.124,0.1244,0.1242,0.1256,0.1246,0.1253,0.125,0.1239,0.124,0.1263,0.1263,0.1247,0.1289,0.1269,0.1273,0.1288,0.1294,0.1299,0.1299,0.1223,0,0,0,0,0,0.1237,0.1248,0.1245,0.1266,0.1268,0.1262,0.1268,0.1261,0.1264,0.1265,0.1264,0.1269,0.128,0.1287,0.1297,0.1325,0.1326,0.1339,0.1344,0.1348,0.1351,0.1368,0.1374,0.1307,0.1307,0.1307,0,0,0.1254,0.1254,0.1262,0.1271,0.1273,0.1286,0.1263,0.1277,0.1287,0.1268,0.1287,0.1287,0.1291,0.1316,0.1327,0.1317,0.137,0.1352,0.1355,0.1356,0.1372,0.1378,0.1384,0.1309,0.1308,0.1308,0,0,0.1293,0.1293,0.1312,0.1315,0.1318,0.1314,0.1319,0.1319,0.1318,0.1338,0.1324,0.1336,0.1355,0.1359,0.1363,0.1406,0.1395,0.1409,0.1435,0.1452,0.1457,0.1462,0.1478,0.1484,0.1413,0.1413,0.1413,0,0.1314,0.1333,0.1323,0.1338,0.1344,0.1327,0.1346,0.135,0.1356,0.1361,0.1349,0.1374,0.1375,0.1402,0.1413,0.1416,0.1422,0.1409,0.1457,0.1462,0.1466,0.1481,0.1488,0.1415,0.1414,0.1414,0.1414,0,0.1359,0.1373,0.1387,0.1394,0.1401,0.1419,0.1413,0.1421,0.1414,0.1412,0.1433,0.1435,0.1445,0.1451,0.1444,0.1478,0.1471,0.1459,0.1438,0.1474,0.1489,0.1495,0.1417,0.1417,0.1416,0.1416,0,0,0.1413,0.1416,0.1422,0.1426,0.1429,0.144,0.1457,0.1468,0.1476,0.1481,0.1497,0.1514,0.1503,0.1508,0.1502,0.1516,0.1552,0.1502,0.1502,0.1512,0.1591,0.1601,0.1608,0.1545,0.1546,0.1547,0.1591,0,0.1452,0.1481,0.1474,0.1504,0.1517,0.1502,0.1518,0.1522,0.1521,0.1533,0.1532,0.1544,0.1528,0.1531,0.1545,0.1544,0.1568,0.1541,0.156,0.156,0.1559,0.1615,0.1625,0.1667,0.1596,0.1597,0.1598,0,0.15,0.1509,0.154,0.1543,0.1548,0.1562,0.1572,0.1583,0.1589,0.1587,0.1594,0.1586,0.1604,0.1584,0.161,0.1593,0.16,0.1601,0.1603,0.1604,0.1582,0.1619,0.168,0.1686,0.1607,0.1606,0.1605,0,0.1538,0.1557,0.1578,0.1582,0.1586,0.1596,0.1599,0.1603,0.1611,0.162,0.1625,0.1636,0.1643,0.1652,0.1647,0.1633,0.1676,0.1654,0.1676,0.1676,0.1685,0.1685,0.1749,0.1689,0.1689,0.1689,0.1689,0,0.1582,0.1602,0.1595,0.1608,0.1631,0.1623,0.1646,0.1647,0.1651,0.1665,0.1654,0.1667,0.166,0.1674,0.167,0.1694,0.1696,0.1696,0.1695,0.1698,0.1698,0.1702,0.17,0.1691,0.169,0.169,0.169,0,0.1627,0.1623,0.1646,0.1649,0.165,0.1667,0.1669,0.1682,0.1681,0.1699,0.1703,0.1701,0.1717,0.1713,0.173,0.1728,0.1758,0.1753,0.1756,0.1755,0.1777,0.1775,0.1846,0.1856,0.179,0.179,0.1791,0,0.1655,0.1671,0.1675,0.1684,0.1687,0.1701,0.1709,0.1703,0.1712,0.1721,0.1733,0.1748,0.1759,0.1785,0.1785,0.1799,0.1795,0.1819,0.1796,0.1799,0.1796,0.1796,0.1798,0.1823,0.1824,0.1825,0.1825,0,0.1707,0.1705,0.1716,0.1728,0.1738,0.1747,0.1755,0.1763,0.1757,0.1768,0.1784,0.1793,0.1811,0.1826,0.1839,0.1843,0.1834,0.1832,0.1838,0.1841,0.1843,0.1843,0.1769,0.183,0.183,0.183,0.1829,0.1829,0.1745,0.1759,0.1765,0.1779,0.1784,0.1792,0.1805,0.1806,0.1819,0.1833,0.1829,0.1848,0.1855,0.1872,0.1877,0.1892,0.1883,0.1891,0.1894,0.1896,0.1899,0.184,0.1894,0.1894,0.1894,0.1894,0.1894,0,0.1797,0.18,0.1813,0.1825,0.1837,0.1827,0.1836,0.1847,0.1863,0.1871,0.1883,0.1902,0.1918,0.192,0.1935,0.1947,0.1944,0.1951,0.1951,0.1952,0.1906,0.19,0.1954,0.1954,0.1954,0.1954,0.1954,0.1954,0.1825,0.1848,0.1847,0.1873,0.1877,0.1895,0.1901,0.1909,0.1916,0.1938,0.1951,0.1952,0.1959,0.1974,0.1989,0.1989,0.1996,0.2005,0.2005,0.1961,0.1955,0.1949,0.1944,0.2007,0.2007,0.205,0.205,0.2051]},{"header":{"parameterUnit":"m.s-1","parameterCategory":1,"la1":30.2991,"la2":30.254,"lo1":-89.0895,"lo2":-89.0444,"dy":0.0017,"dx":0.0017,"nx":28,"ny":28,"refTime":"2024-07-02T03:00:00:Z","depth":0,"parameterNumber":3,"parameterNumberName":"V-component_of_WINDS"},"data":[0,0,0,0,0,0,0,0,0,0,0,0,0,0,0,0,0,0,0,0,0,0,0,0,0,0,0,0,0,0,0,0,0,0,0,0,0,0,0,0,0,0,0,0,0,0,0,0,0,0,0,0,0,0,0,0,0,0,-2.2766,-2.2766,0,-2.2816,-2.2817,-2.2818,-2.2835,-2.2834,-2.2834,-2.2834,-2.2882,-2.2884,-2.2885,0,0,0,0,0,0,0,0,0,0,0,0,0,-2.2679,-2.268,-2.2765,-2.2766,-2.2767,-2.2816,-2.2817,-2.2818,-2.2835,-2.2834,-2.2834,-2.2834,-2.2882,-2.2883,-2.2885,0,0,0,0,0,0,0,0,0,0,0,0,0,-2.2722,-2.2681,-2.2765,-2.2781,-2.2783,-2.2816,-2.2817,-2.2818,-2.2835,-2.2834,-2.2834,-2.2834,-2.2881,-2.2883,-2.2885,-2.2905,0,0,-2.2892,-2.2893,0,0,0,0,0,0,0,0,-2.2719,-2.2725,-2.2778,-2.278,-2.2782,-2.2819,-2.2804,-2.2847,-2.2835,-2.2815,-2.2834,-2.2834,-2.2861,-2.2865,-2.2875,-2.2908,-2.291,-2.2892,-2.2894,-2.2895,-2.2895,0,0,0,0,0,0,0,-2.2716,-2.2723,-2.2786,-2.2779,-2.2782,-2.2785,-2.279,-2.2812,-2.2839,-2.2817,-2.2818,-2.2824,-2.2862,-2.2873,-2.2876,-2.291,-2.2892,-2.2894,-2.2896,-2.2897,-2.2961,-2.2962,0,0,0,0,0,0,-2.2711,-2.272,-2.2784,-2.2787,-2.275,-2.2786,-2.2793,-2.2807,-2.2839,-2.2843,-2.2824,-2.2825,-2.2869,-2.2874,-2.2878,-2.2903,-2.2895,-2.2897,-2.2898,-2.2961,-2.2961,-2.2962,0,0,0,0,0,0,-2.2709,-2.2717,-2.2782,-2.2754,-2.2763,-2.2788,-2.2804,-2.2809,-2.2819,-2.2845,-2.2849,-2.2831,-2.2869,-2.2875,-2.2899,-2.2905,-2.2898,-2.29,-2.296,-2.2961,-2.2962,-2.2954,0,0,0,0,0,0,-2.2707,-2.2716,-2.2725,-2.2754,-2.2764,-2.2803,-2.2805,-2.281,-2.2824,-2.2825,-2.2852,-2.2856,-2.2869,-2.2895,-2.2901,-2.2908,-2.2902,-2.296,-2.2961,-2.2961,-2.2954,-2.2954,-2.2955,0,0,0,0,0,-2.2704,-2.2719,-2.2725,-2.2733,-2.2776,-2.2803,-2.2808,-2.2825,-2.2824,-2.2832,-2.2849,-2.2855,-2.2904,-2.2898,-2.2904,-2.2912,-2.296,-2.2961,-2.2961,-2.2953,-2.2954,-2.2955,0,0,0,0,0,0,-2.2688,-2.2724,-2.273,-2.2756,-2.2777,-2.2806,-2.2817,-2.2825,-2.2845,-2.2845,-2.2863,-2.2869,-2.2891,-2.2904,-2.2896,-2.2933,-2.2932,-2.2934,-2.2924,-2.2924,-2.2925,-2.2921,-2.2903,0,0,0,0,0,-2.2688,-2.2709,-2.2738,-2.2758,-2.2769,-2.2791,-2.2803,-2.2814,-2.2836,-2.2844,-2.2862,-2.2881,-2.2901,-2.2913,-2.2933,-2.2956,-2.2961,-2.2964,-2.2965,-2.2965,-2.2967,-2.2979,-2.2981,-2.2965,-2.2965,-2.2965,0,0,-2.2688,-2.271,-2.2721,-2.2756,-2.2773,-2.2793,-2.2798,-2.2819,-2.2833,-2.2847,-2.2871,-2.2884,-2.2907,-2.293,-2.2942,-2.2942,-2.2972,-2.2966,-2.2966,-2.2968,-2.298,-2.2982,-2.2983,-2.2965,-2.2965,-2.2965,0,0,-2.2698,-2.2716,-2.2736,-2.2753,-2.2779,-2.2794,-2.2799,-2.2827,-2.2837,-2.2862,-2.2872,-2.2889,-2.2923,-2.2938,-2.2951,-2.2967,-2.2973,-2.2972,-2.2975,-2.2987,-2.2988,-2.2989,-2.2995,-2.2996,-2.2974,-2.2974,-2.2974,0,-2.2693,-2.2725,-2.2744,-2.2765,-2.2779,-2.2794,-2.2813,-2.2828,-2.2859,-2.2868,-2.2868,-2.2911,-2.2927,-2.2954,-2.2958,-2.2968,-2.2973,-2.2969,-2.2987,-2.2988,-2.2989,-2.2995,-2.2997,-2.2974,-2.2974,-2.2974,-2.2974,0,-2.2719,-2.274,-2.2752,-2.2783,-2.2799,-2.2819,-2.2839,-2.2853,-2.2862,-2.2877,-2.2901,-2.2922,-2.2945,-2.2953,-2.2962,-2.2981,-2.298,-2.2983,-2.2983,-2.299,-2.2996,-2.2998,-2.2973,-2.2973,-2.2974,-2.2974,0,0,-2.2719,-2.2762,-2.2765,-2.278,-2.281,-2.2827,-2.2846,-2.2871,-2.2882,-2.2903,-2.2919,-2.2948,-2.2951,-2.2965,-2.2976,-2.2986,-2.2997,-2.2988,-2.2989,-2.2989,-2.302,-2.3017,-2.3019,-2.3002,-2.3003,-2.3003,-2.3018,0,-2.2733,-2.2771,-2.2788,-2.2817,-2.2837,-2.2852,-2.2869,-2.2888,-2.2903,-2.292,-2.2935,-2.2955,-2.2958,-2.2967,-2.2978,-2.2994,-2.3004,-2.2993,-2.3016,-2.3017,-2.301,-2.3022,-2.3019,-2.3032,-2.302,-2.302,-2.302,0,-2.2753,-2.2776,-2.2807,-2.2836,-2.2845,-2.286,-2.2884,-2.2902,-2.2924,-2.2933,-2.2949,-2.296,-2.298,-2.2978,-2.3006,-2.2998,-2.3009,-2.3018,-2.3019,-2.3021,-2.3019,-2.3024,-2.3037,-2.3039,-2.3024,-2.3024,-2.3023,0,-2.2751,-2.2788,-2.2812,-2.2824,-2.2858,-2.2868,-2.2882,-2.2905,-2.2919,-2.2939,-2.2948,-2.297,-2.2982,-2.2998,-2.3014,-2.3012,-2.304,-2.304,-2.3048,-2.3047,-2.3053,-2.3052,-2.3067,-2.306,-2.306,-2.306,-2.306,0,-2.2764,-2.2782,-2.2812,-2.2826,-2.2848,-2.2867,-2.2887,-2.2902,-2.2922,-2.2939,-2.2952,-2.2967,-2.2988,-2.3005,-2.3017,-2.3038,-2.3043,-2.3051,-2.3054,-2.305,-2.3049,-2.3056,-2.3056,-2.306,-2.306,-2.306,-2.306,0,-2.2764,-2.2785,-2.2812,-2.2842,-2.285,-2.2864,-2.2889,-2.2903,-2.2918,-2.2939,-2.2945,-2.2968,-2.299,-2.3008,-2.3035,-2.3043,-2.3065,-2.3068,-2.3058,-2.3059,-2.3066,-2.3065,-2.3086,-2.3089,-2.308,-2.308,-2.3081,0,-2.2771,-2.2786,-2.2818,-2.2831,-2.2846,-2.2866,-2.2881,-2.29,-2.2915,-2.2942,-2.2952,-2.2975,-2.2994,-2.3027,-2.3045,-2.3066,-2.3071,-2.3076,-2.3074,-2.3069,-2.307,-2.3069,-2.307,-2.3076,-2.3076,-2.3076,-2.3076,0,-2.2781,-2.279,-2.2812,-2.2837,-2.2854,-2.2874,-2.2894,-2.2904,-2.2927,-2.2942,-2.2965,-2.298,-2.3009,-2.3031,-2.3054,-2.3067,-2.3075,-2.3077,-2.308,-2.3076,-2.3069,-2.3072,-2.3058,-2.3077,-2.3077,-2.3077,-2.3077,-2.3077,-2.2784,-2.2798,-2.2824,-2.2847,-2.2864,-2.2883,-2.2898,-2.2916,-2.2935,-2.2961,-2.2971,-2.2994,-2.3016,-2.3048,-2.3062,-2.3079,-2.308,-2.3084,-2.3085,-2.3086,-2.3085,-2.3066,-2.3083,-2.3083,-2.3083,-2.3083,-2.3083,0,-2.2795,-2.2812,-2.2833,-2.2862,-2.288,-2.2888,-2.2911,-2.2925,-2.2945,-2.2966,-2.2985,-2.301,-2.3032,-2.3052,-2.3074,-2.3084,-2.3089,-2.309,-2.3089,-2.3092,-2.3083,-2.3078,-2.3086,-2.3086,-2.3086,-2.3086,-2.3086,-2.3086,-2.2802,-2.2826,-2.2839,-2.2872,-2.2888,-2.2912,-2.2925,-2.2942,-2.2958,-2.2987,-2.3006,-2.3019,-2.3039,-2.3063,-2.3083,-2.3088,-2.3095,-2.3095,-2.3101,-2.3093,-2.3092,-2.3092,-2.3087,-2.3096,-2.3096,-2.3108,-2.3108,-2.3108]}]]